Location: Sternwarte Stuttgart
(48.7670°N, 9.1830°E)
Time: 00:35:10
(UTC+02:00)

Daily predictions for brighter satellites

Satellite Brightness Start Highest point End
(mag) Time Altitude Azimuth Time Altitude Azimuth Time Altitude Azimuth
CENTAUR R/B 3.9 00:13:41 37° N 00:13:41 37° N 00:18:41 10° NE
USA 215 4.4 00:23:50 38° NNW 00:23:50 38° NNW 00:28:25 10° WNW
Cosmos 1980 Rocket 4.4 00:21:45 10° NNW 00:23:59 20° N 00:23:59 20° N
ATLAS 3B R/B 4.1 01:04:29 10° NW 01:10:41 32° NNE 01:10:41 32° NNE
Cosmos 2360 Rocket 4.3 02:05:54 10° NNW 02:08:25 22° N 02:08:25 22° N
SL-16 R/B 4.5 02:17:27 21° ENE 02:18:50 23° NE 02:23:31 10° N
CZ-4C R/B 3.6 02:27:48 10° NW 02:37:31 30° E 02:41:29 10° ESE
ATLAS 2AS CENTAUR R/B 3.8 02:50:31 43° E 02:50:31 43° E 02:56:58 10° NE
Resurs 1-4 Rocket 4.3 02:55:24 10° NE 02:58:40 18° E 02:58:40 18° E
ATLAS 3B R/B 4.4 02:55:28 10° NW 02:57:51 23° NW 02:57:51 23° NW
COSMOS 2428 4.1 02:58:05 10° NNW 03:02:52 35° NE 03:02:52 35° NE
Cosmos 2082 Rocket 4.1 03:14:26 22° NNW 03:14:26 22° NNW 03:17:27 10° N
USA 238 DEB 4.2 03:13:03 10° NW 03:23:29 33° ESE 03:27:06 10° SE
USA 238 4.2 03:13:09 10° NW 03:23:14 36° ESE 03:27:11 10° SE
ATLAS 5 CENTAUR R/B 3.9 03:23:31 10° NNW 03:28:37 32° NNE 03:34:07 10° E
Okean O Rocket 4.4 03:43:07 10° ENE 03:45:04 13° E 03:46:51 10° ESE
Cosmos 2219 Rocket 3.2 03:51:06 10° NNW 03:56:35 45° NE 04:02:01 10° SE
CENTAUR R/B 4.5 03:50:56 10° NW 03:57:23 32° NNE 04:04:23 10° E
SL-16 R/B 2.6 04:02:33 70° NW 04:02:33 70° NW 04:08:06 10° NNW
Cosmos 2333 4.4 03:56:07 10° NNW 04:01:54 71° ENE 04:01:58 71° ENE
CZ-2D R/B 2.4 04:00:28 10° NNE 04:05:29 61° E 04:05:29 61° E
ADEOS 4.0 04:02:11 10° NNE 04:06:17 55° N 04:06:17 55° N
NOSS 2-3 (D) 4.2 04:13:20 72° E 04:13:20 72° E 04:18:47 10° NE
ARIANE 5 R/B 2.6 04:14:34 10° NNE 04:19:07 69° N 04:19:07 69° N
CZ-4C R/B 2.8 04:16:19 10° NW 04:23:23 62° SW 04:30:50 10° SSE
Meteor 2-14 Rocket 4.3 04:17:10 10° N 04:23:17 88° E 04:24:51 53° SSE
NOSS 3-1 (A) 4.5 04:23:07 33° NW 04:24:24 36° NNW 04:30:47 10° NE
Cosmos 1821 Rocket 3.9 04:18:26 10° N 04:24:50 88° E 04:27:23 40° S
Cosmos 1812 3.9 04:27:54 41° NE 04:27:54 41° NE 04:30:40 10° NNE
Cosmos 2333 Rocket 2.7 04:22:22 10° NNW 04:28:04 60° ENE 04:33:41 10° SE
Cosmos 1605 Rocket 4.5 04:23:40 10° N 04:29:44 59° ENE 04:35:49 10° SSE
Cosmos 1934 Rocket 4.0 04:24:54 10° N 04:31:16 82° E 04:35:35 21° SSE
Cosmos 1975 4.3 04:30:23 10° N 04:32:29 30° N 04:32:29 30° N
Meteor 2-21 4.5 04:28:55 10° NNW 04:34:25 57° WNW 04:34:25 57° WNW
Cosmos 1680 Rocket 4.5 04:31:21 10° NNW 04:36:30 48° ENE 04:41:34 10° SE
Cosmos 304 Rocket 3.7 04:31:48 10° NNW 04:36:39 83° ENE 04:37:50 52° SSE
Lacrosse 5 rocket 1.8 04:38:30 65° ESE 04:38:30 65° ESE 04:42:45 10° ENE
Resurs 1-4 Rocket 2.0 04:34:10 10° N 04:39:28 72° WNW 04:39:44 70° W
ATLAS 2AS CENTAUR R/B 3.2 04:37:58 45° W 04:40:17 61° NW 04:48:24 10° NE
EXPRESS MD2 4.3 04:42:02 36° E 04:42:02 36° E 04:44:47 10° E
Meteor 1-12 Rocket 4.2 04:36:23 10° NNW 04:42:22 72° W 04:44:00 48° SSW
NOSS 0 Rocket 3.9 04:37:32 10° NNW 04:43:49 83° ENE 04:50:04 10° SSE
IRAS Rocket 4.3 04:40:03 10° N 04:45:26 54° WNW 04:45:41 53° WNW
Lacrosse 5 4.0 04:43:31 14° SSE 04:46:02 19° ESE 04:49:34 10° E
Meteor 2-21 Rocket 4.4 04:41:05 10° NNW 04:47:00 57° W 04:47:36 55° WSW
COSMOS 2428 4.1 04:42:19 10° NW 04:44:43 25° NW 04:44:43 25° NW
CZ-2D R/B 3.3 04:45:46 10° NNE 04:49:41 81° NE 04:49:41 81° NE
CZ-4B R/B 4.0 04:49:44 10° NNE 04:54:57 48° E 05:00:13 10° S
Uosat 12 SS-18 rocket 4.0 04:56:29 65° NW 04:56:33 65° NW 05:00:50 10° NE
ERS-2 3.6 04:53:31 10° N 04:55:37 28° NNW 04:55:37 28° NNW
Cosmos 2237 Rocket 2.2 04:53:09 10° NNW 04:58:51 80° ENE 05:04:28 10° SSE
Thor Agena Rocket 4.1 04:57:26 10° SSE 05:02:38 62° ENE 05:07:53 10° N
Gbstr 26 Del rocket 4.5 05:00:42 35° W 05:03:37 54° SW 05:11:23 10° SE
NOSS 3-2 (A) 3.9 04:59:13 10° NW 05:06:35 72° SW 05:14:33 10° SSE
IRS-1D 4.2 05:04:06 10° N 05:08:59 37° WNW 05:09:30 36° WNW
MOS 1-B 4.3 05:03:25 10° N 05:09:10 66° WNW 05:11:38 35° SW
ARGOS Delta rocket 4.2 05:05:37 10° N 05:10:10 46° WNW 05:10:42 44° W
USA 238 DEB 4.3 05:04:29 10° NW 05:11:27 34° SW 05:16:52 10° S
USA 238 4.2 05:04:35 10° NW 05:11:16 34° WSW 05:16:59 10° S
Meteor 1-18 Rocket 4.3 05:09:00 39° SW 05:11:01 58° WNW 05:16:45 10° N
Cosmos 1980 3.6 05:06:14 10° NNW 05:11:57 78° WSW 05:17:37 10° SSE
Cosmos 2219 3.3 05:12:12 41° WSW 05:13:53 57° WNW 05:19:27 10° NNE
ATLAS 5 CENTAUR R/B 2.3 05:08:01 10° NW 05:13:57 83° SW 05:20:22 10° SE
MOZ.5/SAFIR/RUBIN 5/SL-8 3.9 05:14:32 36° SSW 05:16:05 52° W 05:20:45 10° NNW
SL-16 R/B 3.0 05:11:02 10° NNW 05:16:38 54° NE 05:22:12 10° SE
CZ-2C R/B 3.6 05:13:50 14° S 05:17:45 62° WSW 05:22:22 10° NNW
Cosmos 968 Rocket 3.6 05:16:19 41° WSW 05:17:50 57° WNW 05:22:55 10° NNE
Cosmos 2084 3.5 05:17:34 40° S 05:18:40 59° SE 05:22:26 10° NE
Cosmos 923 Rocket 4.0 05:14:24 10° NNW 05:19:44 65° WSW 05:25:01 10° S
Okean O Rocket 1.5 05:17:35 10° NNE 05:22:02 79° WNW 05:24:18 28° SSW
RESURS DK-1 4.0 05:23:14 10° S 05:26:56 32° ESE 05:30:39 10° NE
Cosmos 1666 3.3 05:24:14 10° N 05:28:06 59° ENE 05:31:55 10° SSE
UNKNOWN OBJECT B 3.9 05:28:56 10° N 05:32:09 27° WNW 05:32:09 27° WNW
USA 116 4.5 05:29:03 10° SSE 05:34:11 74° ENE 05:38:52 10° N
Cosmos 2227 Rocket 2.4 05:29:40 12° SSW 05:35:00 71° ESE 05:40:39 10° NNE
Cosmos 1025 Rocket 3.1 05:31:55 10° S 05:36:16 81° E 05:40:37 10° NNE
Cosmos 1606 Rocket 3.4 05:34:27 10° N 05:38:53 83° W 05:43:13 10° S
Okean 1 4.2 05:39:23 29° W 05:39:38 29° WNW 05:43:11 10° N
Cosmos 2219 Rocket 2.7 05:35:19 10° NW 05:40:25 35° WSW 05:45:30 10° S
ADEOS II 2.6 05:35:42 10° NNE 05:40:56 62° ESE 05:46:09 10° S
Meteor 2-8 Rocket 4.5 05:35:50 13° SSW 05:41:23 60° WNW 05:47:27 10° N
NOSS 3-2 (C) 4.0 05:35:44 10° NW 05:42:57 56° WSW 05:50:45 10° SSE
SeaSat 1 4.2 05:38:36 10° ESE 05:43:02 34° NE 05:47:29 10° NNW
Cosmos 1461 3.7 05:41:50 27° W 05:43:30 37° NW 05:47:31 10° NNE
Cosmos 1727 Rocket 4.0 05:38:08 10° SSW 05:44:20 67° WNW 05:50:39 10° N
Cosmos 2297 Rocket 2.6 05:39:16 10° SSW 05:44:48 63° ESE 05:50:25 10° NNE
CZ-2D R/B 3.3 05:41:18 10° N 05:45:21 23° WNW 05:46:48 21° W
Cosmos 1346 Rocket 3.3 05:42:04 10° S 05:45:58 62° E 05:49:56 10° NNE
SL-16 R/B 4.1 05:47:40 15° WNW 05:47:40 15° WNW 05:49:56 10° NW
Meteor 1-15 Rocket 4.3 05:41:03 10° N 05:46:40 81° ENE 05:52:15 10° SSE
Tiangong 1 3.3 05:47:00 13° S 05:48:10 16° SSE 05:50:07 10° ESE
CZ-4B DEB 4.2 05:43:45 10° N 05:49:12 70° WNW 05:54:39 10° SSW
CENTAUR R/B 3.4 05:41:47 10° NW 05:49:24 71° NE 05:57:39 10° SE
Cosmos 1743 3.2 05:46:39 10° NNW 05:50:13 37° W 05:53:45 10° SSW
Cosmos 2173 Rocket 3.9 05:44:38 10° N 05:50:46 88° WSW 05:56:53 10° S
Cosmos 1726 Rocket 3.4 05:46:24 10° NNW 05:50:50 74° W 05:55:11 10° S
Okean 1-7 Rocket 4.0 05:49:22 21° SW 05:51:53 41° WNW 05:56:05 10° N
PAYLOAD B 4.3 05:49:27 10° N 05:54:51 57° WNW 06:00:13 10° SW
CZ-4B R/B 3.3 05:51:02 10° N 05:55:11 49° WNW 05:59:08 12° SW
ADEOS Rocket 3.3 05:49:11 10° NNE 05:56:40 80° WNW 06:03:23 10° SSW
ARIANE 5 R/B 4.2 05:55:14 10° NNW 05:58:06 15° NW 05:59:27 14° WNW
Cosmos 1777 Rocket 4.4 05:56:58 17° SW 06:00:39 44° WNW 06:05:43 10° NNE
Meteor PRIRODA 3.8 05:57:09 10° NNE 06:00:56 76° ESE 06:04:39 10° S
Cosmos 1459 Rocket 4.0 05:55:27 10° NNW 06:01:50 74° W 06:08:09 10° S
Cosmos 1892 Rocket 3.6 05:59:08 10° S 06:03:37 85° WNW 06:08:08 10° N
COBE Rocket 4.4 06:00:11 10° NNE 06:05:01 62° E 06:09:42 10° S
MOS 1 Rocket 3.8 06:01:41 10° NNE 06:06:19 64° ESE 06:11:14 10° S
NOSS 3-4 (A) 3.6 06:03:52 10° SW 06:10:13 81° NW 06:16:54 10° NE
NOSS 3-4 (C) 3.6 06:03:56 10° SW 06:10:19 82° NW 06:17:00 10° NE
COS B Rocket 2.5 06:08:48 15° SSW 06:10:25 36° W 06:12:43 10° NNW
CZ-4C R/B 4.2 06:09:09 14° W 06:10:47 15° WSW 06:14:43 10° SW
PSLV R/B 3.6 06:06:33 10° N 06:10:52 60° WNW 06:15:06 10° SSW
Cosmos 2333 Rocket 3.1 06:07:19 10° NW 06:11:56 26° WSW 06:16:31 10° SSW
Cosmos 2082 3.7 06:07:38 10° SW 06:13:14 68° WNW 06:18:52 10° NNE
Cosmos 2344 4.0 06:06:19 14° WSW 06:13:15 60° NW 06:22:44 10° NE
Okean 2 3.4 06:11:23 10° SSW 06:15:31 68° WNW 06:19:40 10° N
CZ-3A R/B 3.2 06:11:29 10° WNW 06:15:38 55° SW 06:24:41 10° SE
Meteor 1-19 Rocket 4.5 06:11:41 10° SSW 06:17:09 48° WNW 06:22:36 10° N
Lacrosse 5 rocket 2.3 06:14:14 14° W 06:17:50 39° NNW 06:21:59 10° NE
Cosmos 1680 Rocket 4.3 06:13:55 10° NW 06:18:23 28° W 06:22:48 10° SSW
Resurs 1-4 Rocket 3.9 06:15:51 10° NNW 06:18:25 14° NW 06:20:49 10° W
Cosmos 220 Rocket 4.1 06:14:32 10° SW 06:18:42 54° WNW 06:22:52 10° NNE
Okean-O 2.7 06:16:43 10° N 06:21:06 61° WNW 06:25:28 10° SSW
Cosmos 1812 Rocket 4.3 06:18:24 10° N 06:22:47 59° ENE 06:27:11 10° SSE
Meteor 1-31 Rocket 2.8 06:21:12 10° NNE 06:25:07 88° WNW 06:29:02 10° SSW
USA 129 2.5 06:25:00 10° SSW 06:26:44 25° W 06:28:23 10° NW
Lacrosse 5 1.9 06:23:18 10° SW 06:28:22 83° SE 06:33:28 10° NE
Cosmos 2228 3.2 06:25:55 10° NNW 06:30:14 53° W 06:34:29 10° S
ATLAS 2AS CENTAUR R/B 4.2 06:26:02 10° WNW 06:33:00 31° NNW 06:40:06 10° NE
CZ-4B R/B 4.0 06:30:44 10° N 06:35:19 30° WNW 06:39:58 10° WSW
Cosmos 2058 Rocket 3.7 06:31:41 10° NNW 06:35:37 34° W 06:39:33 10° SSW
Cosmos 2298 Rocket 4.0 06:31:40 10° SSW 06:36:58 83° WNW 06:42:20 10° NNE
Cosmos 192 4.3 06:32:02 10° NNW 06:37:01 81° WSW 06:41:57 10° SSE
Cosmos 2061 Rocket 4.4 06:34:42 10° NNW 06:40:31 41° W 06:46:21 10° SSW
BREEZE-M DEB (TANK) 4.0 06:27:24 10° WNW 06:41:03 50° SW 06:44:59 10° SE
Meteor 2-4 Rocket 4.2 06:35:54 10° SW 06:41:26 43° WNW 06:47:06 10° N
Cosmos 2237 Rocket 3.5 06:38:30 10° WNW 06:42:12 18° W 06:45:54 10° SW
Cosmos 1802 Rocket 4.4 06:42:27 10° NNW 06:48:08 39° W 06:53:46 10° SSW
Meteor 2-15 4.5 06:42:14 10° SSW 06:48:15 65° WNW 06:54:18 10° N
